Date,TemperatureHighF,TemperatureAvgF,TemperatureLowF,DewpointHighF,DewpointAvgF,DewpointLowF,HumidityHigh,HumidityAvg,HumidityLow,PressureMaxIn,PressureMinIn,WindSpeedMaxMPH,WindSpeedAvgMPH,GustSpeedMaxMPH,PrecipitationSumIn
2013-1-17,56.9,47.4,38.0,32.0,29.8,28.0,68,52,38,30.51,30.43,8,1,13,0.00
2013-1-18,59.9,45.6,29.1,36.0,31.8,25.0,85,61,36,30.51,30.22,10,3,18,0.00
2013-1-19,65.4,51.0,40.5,41.0,37.3,34.0,82,61,37,30.22,30.09,13,3,18,0.00
2013-1-20,67.8,52.5,34.9,47.0,40.9,33.0,96,68,39,30.20,30.06,9,1,15,0.00
2013-1-21,49.7,40.4,30.3,39.0,22.2,14.0,74,50,35,30.35,30.16,15,6,20,0.00
2013-1-22,61.2,44.8,27.4,44.0,31.7,20.0,84,61,43,30.31,30.17,9,2,13,0.00
2013-1-23,73.2,56.0,39.2,55.0,47.6,37.0,93,76,48,30.23,30.08,8,3,17,0.00
2013-1-24,60.8,50.8,44.5,54.0,47.5,39.0,97,89,65,30.16,30.05,9,2,11,0.00
2013-1-25,52.1,41.8,34.4,40.0,35.3,29.0,94,78,60,30.24,30.07,11,5,14,0.00
2013-1-26,47.8,43.3,37.2,46.0,41.4,33.0,97,93,82,30.24,30.08,12,4,17,0.00
2013-1-27,70.6,58.1,45.3,61.0,54.3,45.0,98,88,70,30.09,29.87,20,6,30,0.00
2013-1-28,76.2,69.4,64.5,65.0,63.5,61.0,93,82,67,29.94,29.73,21,7,28,0.00
2013-1-29,73.0,64.1,51.3,66.0,55.6,31.0,94,75,41,29.74,29.41,27,8,37,0.14
2013-1-30,49.4,42.9,36.5,43.0,28.5,21.0,83,59,36,30.11,29.61,24,9,29,0.01
2013-1-31,62.7,45.6,31.1,31.0,24.7,20.0,72,47,26,30.38,30.06,19,6,25,0.00
2013-2-1,55.0,38.3,23.3,35.0,23.4,13.0,74,56,39,30.43,30.16,14,4,18,0.00
2013-2-2,63.0,48.2,34.1,37.0,32.6,28.0,81,58,34,30.33,30.14,13,2,21,0.00
2013-2-3,62.3,51.1,36.5,38.0,32.6,29.0,78,53,32,30.32,29.95,12,3,14,0.00
2013-2-4,71.1,60.8,53.2,51.0,44.2,31.0,88,56,37,29.95,29.76,11,3,19,0.00
2013-2-5,60.1,53.7,49.3,58.0,52.2,47.0,97,94,87,30.01,29.88,8,2,9,0.00
2013-2-6,63.0,56.0,52.0,62.0,55.0,51.0,98,96,90,30.02,29.83,22,7,24,0.00
2013-2-7,71.7,58.7,46.9,59.0,52.7,40.0,98,82,44,30.12,29.79,27,8,34,0.00
2013-2-8,58.9,48.0,37.5,40.0,33.4,26.0,80,60,30,30.29,30.13,13,4,15,0.00
2013-2-9,53.3,45.9,43.0,53.0,41.9,35.0,97,86,73,30.14,29.69,20,8,29,0.01
2013-2-10,62.5,55.1,47.8,57.0,34.4,26.0,97,50,25,30.02,29.67,21,6,31,0.04
2013-2-11,58.3,48.2,38.7,34.0,29.3,27.0,66,50,32,30.19,30.03,11,3,16,0.00
2013-2-12,45.4,41.2,37.1,42.0,36.9,-99.9,95,88,65,30.07,29.89,12,5,19,0.49
2013-2-13,56.9,44.3,35.4,39.0,33.4,28.0,93,70,35,30.14,29.99,15,3,20,0.07
2013-2-14,67.4,50.8,34.1,37.0,32.0,27.0,84,53,22,30.17,29.98,17,2,23,0.04
2013-2-15,50.3,42.3,32.8,37.0,25.1,18.0,72,52,33,30.39,30.18,21,9,26,0.01
2013-2-16,52.6,40.7,30.1,31.0,26.7,21.0,88,60,37,30.43,30.14,9,2,15,0.00
2013-2-17,72.4,55.3,38.6,41.0,32.6,29.0,74,46,20,30.13,29.80,21,6,28,0.01
2013-2-18,65.8,56.4,44.3,54.0,41.0,29.0,82,58,34,30.13,29.67,29,10,42,0.00
2013-2-19,57.2,46.3,34.9,31.0,26.3,23.0,78,48,28,30.33,30.13,10,3,16,0.00
2013-2-20,47.4,39.4,36.1,38.0,34.6,26.0,94,84,43,30.23,29.85,18,9,28,0.30
2013-2-21,55.0,42.5,32.9,44.0,36.3,27.0,95,80,57,29.98,29.62,23,9,30,0.15
2013-2-22,44.5,33.8,25.5,27.0,22.3,18.0,81,64,46,30.19,29.98,18,5,22,0.13
2013-2-23,50.9,37.0,26.5,33.0,26.5,21.0,82,67,50,30.15,29.93,7,1,11,0.04
2013-2-24,65.6,50.5,35.2,43.0,36.8,29.0,80,61,41,29.93,29.63,22,8,27,0.00
2013-2-25,53.0,44.1,37.2,43.0,39.3,33.0,94,84,60,29.68,29.42,22,8,29,0.26
2013-2-26,52.6,43.4,37.3,34.0,32.0,28.0,84,66,43,29.92,29.64,22,10,32,0.00
2013-2-27,51.5,41.0,34.6,31.0,28.0,21.0,82,63,30,30.24,29.89,22,7,27,0.00
2013-2-28,53.8,41.2,30.1,30.0,27.7,25.0,86,62,34,30.29,30.19,20,6,26,0.00
2013-3-1,48.6,37.9,29.0,33.0,28.8,25.0,87,71,54,30.34,30.23,15,5,21,0.00
2013-3-2,53.6,38.7,24.9,29.0,25.6,22.0,89,62,38,30.45,30.23,12,3,18,0.00
2013-3-3,70.3,53.8,37.1,38.0,32.4,27.0,68,47,29,30.22,29.65,16,6,28,0.00
2013-3-4,77.6,63.7,46.6,45.0,40.7,33.0,77,45,28,29.88,29.55,32,10,39,0.00
2013-3-5,52.5,44.9,36.9,39.0,24.7,17.0,76,47,29,30.39,29.87,32,13,45,0.00
2013-3-6,56.2,43.3,28.2,25.0,21.5,15.0,77,45,20,30.48,30.19,8,1,11,0.00
2013-3-7,69.2,54.9,40.2,34.0,27.5,23.0,53,37,22,30.21,30.04,18,5,31,0.00
2013-3-8,61.3,57.3,52.6,56.0,48.4,34.0,89,74,43,30.12,29.91,17,9,23,0.00
2013-3-9,66.8,60.2,56.6,63.0,57.6,55.0,96,91,82,29.91,29.61,19,6,27,0.66
2013-3-10,58.7,46.2,37.1,55.0,36.5,30.0,94,69,55,30.08,29.66,20,9,30,0.01
2013-3-11,57.9,42.8,29.8,30.0,25.7,17.0,87,56,26,30.12,29.99,12,3,17,0.00
2013-3-12,62.3,51.4,39.8,39.0,31.1,23.0,63,47,29,30.33,30.03,14,3,24,0.00
2013-3-13,65.5,52.2,38.7,36.0,31.6,25.0,67,47,31,30.46,30.30,8,2,16,0.00
2013-3-14,77.4,62.4,44.8,47.0,41.6,34.0,67,48,29,30.32,30.10,15,4,23,0.00
2013-3-15,82.6,66.6,52.8,52.0,47.1,45.0,77,53,27,30.11,29.79,25,6,29,0.00
2013-3-16,80.1,69.3,57.3,59.0,52.1,44.0,74,55,42,29.78,29.61,19,6,22,0.00
2013-3-17,66.1,53.1,46.5,56.0,44.1,39.0,81,72,59,29.78,29.64,16,4,18,0.00
2013-3-18,64.3,53.9,43.4,44.0,40.6,35.0,90,64,37,30.01,29.63,17,6,22,0.00
2013-3-19,61.2,52.2,40.1,40.0,34.8,26.0,85,55,29,30.14,29.97,18,4,25,0.00
2013-3-20,62.5,52.9,38.0,37.0,30.8,26.0,73,46,26,30.32,30.02,8,2,11,0.00
2013-3-21,66.1,53.0,47.2,54.0,38.2,31.0,77,58,48,30.01,29.52,19,10,26,0.00
2013-3-22,48.5,45.0,39.9,42.0,39.9,38.0,91,82,71,29.88,29.58,20,7,26,0.00
2013-3-23,48.2,45.4,42.2,46.0,43.3,40.0,95,92,87,29.88,29.68,21,4,28,0.07
2013-3-24,47.8,40.5,34.8,39.0,26.4,18.0,90,60,33,30.21,29.88,30,14,33,0.00
2013-3-25,47.2,37.5,26.4,24.0,18.1,14.0,76,49,29,30.42,30.22,20,7,27,0.00
2013-3-26,57.0,41.0,25.1,27.0,20.5,17.0,72,47,22,30.50,30.28,6,1,14,0.00
2013-3-27,68.3,53.9,38.5,42.0,32.3,24.0,60,45,33,30.28,30.04,23,7,34,0.00
2013-3-28,68.9,60.1,48.6,56.0,50.4,41.0,85,71,60,30.16,30.02,21,6,26,0.00
2013-3-29,74.6,65.6,58.1,60.0,57.5,55.0,92,76,57,30.11,29.98,18,5,24,0.04
2013-3-30,77.8,67.4,55.5,63.0,59.7,54.0,94,77,58,29.98,29.82,19,4,37,0.07
2013-3-31,71.4,64.3,56.0,61.0,52.0,44.0,93,67,41,29.98,29.77,24,4,42,0.52
2013-4-1,76.6,62.9,46.6,49.0,45.4,42.0,85,56,30,30.05,29.93,16,2,19,0.00
2013-4-2,56.9,48.0,42.4,48.0,44.7,41.0,94,88,67,30.08,29.95,22,8,24,0.48
2013-4-3,43.4,42.0,40.1,42.0,39.8,38.0,95,92,81,30.19,30.00,16,5,19,0.59
2013-4-4,52.1,44.4,39.6,43.0,39.8,38.0,95,85,68,30.23,30.13,9,3,12,0.03
2013-4-5,66.6,52.4,36.9,49.0,42.9,35.0,95,72,50,30.24,29.98,13,2,17,0.00
2013-4-6,75.8,65.7,56.5,58.0,52.3,48.0,80,63,43,29.97,29.77,18,6,31,0.00
2013-4-7,70.4,65.6,59.2,62.0,60.0,56.0,90,82,74,29.82,29.65,19,8,29,0.00
2013-4-8,77.3,70.7,64.9,65.0,63.0,59.0,85,77,63,29.66,29.57,25,9,27,0.00
2013-4-9,79.0,71.2,48.4,67.0,63.0,41.0,85,75,65,29.75,29.56,25,10,35,0.00
2013-4-10,47.0,39.3,35.7,40.0,35.1,32.0,91,85,75,30.01,29.72,23,12,38,0.44
2013-4-11,56.9,45.0,33.9,37.0,32.8,28.0,86,64,42,30.01,29.82,11,4,17,0.00
2013-4-12,70.2,54.8,38.4,45.0,40.5,35.0,88,62,37,30.02,29.83,9,2,20,0.00
2013-4-13,75.7,63.5,52.3,50.0,45.3,41.0,68,53,35,29.97,29.72,20,5,21,0.00
2013-4-14,80.8,68.7,57.5,65.0,56.4,49.0,82,66,54,29.73,29.46,19,6,29,0.00
2013-4-15,86.5,76.3,65.3,69.0,66.2,62.0,92,72,54,29.66,29.50,17,6,29,0.00
2013-4-16,82.0,75.3,70.3,69.0,66.6,65.0,85,75,62,29.84,29.66,15,6,18,0.00
2013-4-17,81.9,76.3,71.9,70.0,68.3,67.0,92,77,61,29.80,29.48,25,10,33,0.00
2013-4-18,76.4,49.7,39.8,70.0,40.9,32.0,89,73,54,30.15,29.50,24,13,35,0.20
2013-4-19,62.0,48.2,35.2,34.0,29.8,23.0,82,53,28,30.26,30.11,15,4,25,0.00
2013-4-20,68.9,57.6,44.7,40.0,34.2,28.0,65,44,24,30.15,29.99,21,6,29,0.00
2013-4-21,68.4,59.8,50.1,51.0,45.1,37.0,72,59,49,30.16,30.04,15,5,24,0.00
2013-4-22,76.0,65.0,51.6,59.0,53.0,45.0,78,66,54,30.08,29.75,19,6,33,0.00
2013-4-23,66.3,48.4,38.6,59.0,43.9,34.0,92,85,75,30.22,29.74,19,11,24,0.00
2013-4-24,59.7,46.6,33.2,33.0,30.2,26.0,83,57,32,30.34,30.21,20,6,24,0.00
2013-4-25,70.0,55.2,35.0,46.0,36.4,29.0,86,54,22,30.34,30.11,16,4,21,0.00
2013-4-26,73.4,64.3,56.2,65.0,55.2,45.0,86,73,52,30.16,29.90,13,6,24,0.01
2013-4-27,70.4,63.6,55.9,66.0,56.2,52.0,92,78,59,30.10,29.91,18,6,22,0.00
2013-4-28,81.8,65.7,47.7,63.0,54.6,46.0,96,71,39,30.01,29.80,11,3,17,0.00
2013-4-29,85.6,73.5,61.6,63.0,59.1,50.0,91,65,31,29.84,29.70,16,4,26,0.00
2013-4-30,81.5,72.1,60.2,63.0,60.1,57.0,88,67,48,29.76,29.68,18,6,23,0.00
2013-5-1,81.4,70.5,57.7,68.0,62.7,51.0,95,78,53,30.01,29.72,16,7,22,0.00
2013-5-2,55.9,45.2,40.2,49.0,39.3,34.0,89,80,72,30.37,30.02,31,16,34,0.04
2013-5-3,63.1,49.5,32.8,36.0,31.2,25.0,90,56,26,30.37,30.02,28,6,30,0.00
2013-5-4,66.1,52.9,38.6,40.0,33.0,21.0,79,52,19,30.05,29.91,25,9,33,0.00
2013-5-5,65.0,55.0,46.2,48.0,43.6,38.0,82,66,54,30.16,30.05,19,6,22,0.00
2013-5-6,76.5,61.7,45.0,53.0,49.3,43.0,92,67,40,30.11,29.97,11,2,16,0.00
2013-5-7,81.4,69.6,55.7,55.0,52.5,50.0,84,57,34,30.05,29.87,12,3,17,0.00
2013-5-8,85.1,73.0,60.9,64.0,55.3,46.0,76,57,26,29.93,29.78,19,6,30,0.01
2013-5-9,75.2,69.4,62.8,67.0,61.5,57.0,93,76,60,29.91,29.79,13,3,18,0.00
2013-5-10,76.6,68.3,60.7,64.0,59.7,56.0,96,76,52,30.04,29.87,15,4,20,0.00
2013-5-11,80.4,66.8,52.7,57.0,52.8,49.0,94,65,34,30.18,30.04,20,4,30,0.02
2013-5-12,77.6,64.8,50.8,48.0,39.9,32.0,70,44,20,30.23,30.08,10,2,17,0.00
2013-5-13,91.2,74.7,57.8,51.0,45.2,38.0,54,37,21,30.15,29.99,20,6,28,0.00
2013-5-14,87.6,77.5,66.2,59.0,53.7,47.0,59,45,29,30.05,29.88,20,7,24,0.00
2013-5-15,78.1,69.7,60.9,69.0,63.8,57.0,94,82,55,29.93,29.67,14,5,26,0.99
2013-5-16,68.0,65.0,62.3,66.0,63.1,61.0,96,94,89,29.79,29.70,12,4,21,0.15
2013-5-17,85.1,73.2,64.6,75.0,69.7,64.0,98,89,66,29.81,29.72,15,6,19,0.00
2013-5-18,89.4,80.3,72.0,74.0,72.1,71.0,96,78,57,29.81,29.64,24,7,29,0.00
2013-5-19,87.2,80.4,72.6,73.0,69.7,66.0,81,70,61,29.73,29.51,22,9,33,0.00
2013-5-20,87.1,76.1,64.3,73.0,68.1,58.0,92,77,51,29.69,29.56,25,7,48,0.84
2013-5-21,70.1,63.5,56.8,68.0,60.5,56.0,96,90,77,29.82,29.67,32,5,48,0.54
2013-5-22,83.1,68.3,52.6,63.0,57.7,52.0,97,73,39,29.92,29.80,8,2,14,0.10
2013-5-23,84.0,72.8,60.4,70.0,64.5,58.0,92,76,51,30.05,29.85,20,7,39,0.03
2013-5-24,81.3,72.9,64.9,73.0,68.1,62.0,93,85,74,30.10,29.99,19,7,23,0.11
2013-5-25,79.7,70.4,66.2,71.0,66.4,60.0,94,87,64,30.12,29.94,14,5,30,0.31
2013-5-26,83.5,76.2,69.2,73.0,70.6,66.0,94,83,68,30.01,29.84,17,6,24,0.00
2013-5-27,81.8,75.8,71.2,72.0,69.6,68.0,91,81,70,29.89,29.70,17,6,28,0.00
2013-5-28,80.6,77.1,71.3,70.0,68.4,67.0,87,75,67,29.79,29.61,18,8,29,0.00
2013-5-29,79.1,74.4,63.5,74.0,69.2,61.0,95,84,75,29.75,29.60,36,10,48,1.08
2013-5-30,86.0,78.0,69.2,74.0,71.4,66.0,93,80,66,29.70,29.56,19,8,28,0.01
2013-5-31,87.8,81.5,75.8,77.0,73.4,72.0,87,76,68,29.73,29.53,19,8,29,0.00
2013-6-1,82.6,75.9,66.5,74.0,66.2,57.0,94,73,43,29.94,29.57,17,6,26,0.74
2013-6-2,77.4,69.2,59.8,59.0,56.2,50.0,91,66,46,30.07,29.91,16,4,22,0.00
2013-6-3,82.6,71.8,59.3,66.0,61.5,56.0,90,71,51,29.97,29.78,14,4,16,0.00
2013-6-4,86.3,76.2,66.8,73.0,67.9,62.0,94,76,62,29.98,29.74,21,9,36,0.74
2013-6-5,84.2,76.6,69.0,74.0,70.3,67.0,94,81,67,29.92,29.75,13,6,29,0.33
2013-6-6,75.9,70.6,64.4,70.0,65.6,62.0,96,84,67,29.92,29.80,17,3,32,1.62
2013-6-7,81.2,69.6,59.4,63.0,59.0,53.0,94,72,44,29.98,29.86,10,2,12,0.00
2013-6-8,82.7,73.8,62.8,66.0,61.3,58.0,83,66,50,29.90,29.73,16,5,21,0.00
2013-6-9,87.5,76.1,65.6,69.0,66.1,63.0,94,73,48,29.89,29.76,20,3,27,0.22
2013-6-10,93.5,80.9,69.6,73.0,69.4,66.0,90,70,48,29.90,29.81,16,5,20,0.00
2013-6-11,91.2,82.2,71.0,75.0,70.4,65.0,86,68,55,29.93,29.83,13,5,22,0.00
2013-6-12,91.4,82.7,73.7,74.0,71.6,69.0,85,70,54,29.96,29.85,16,5,23,0.00
2013-6-13,93.4,83.8,74.0,77.0,72.8,69.0,85,70,50,29.97,29.82,12,2,14,0.00
2013-6-14,92.4,83.7,75.0,76.0,72.9,70.0,87,71,52,29.92,29.83,9,1,12,0.00
2013-6-15,86.1,80.9,74.3,77.0,74.0,70.0,92,80,65,29.93,29.82,17,3,20,0.00
2013-6-16,93.0,82.3,70.2,76.0,71.9,67.0,93,73,51,29.94,29.79,11,3,17,0.00
2013-6-17,86.2,76.3,66.9,73.0,69.3,65.0,95,80,62,29.95,29.79,21,5,36,1.19
2013-6-18,84.9,76.0,69.2,71.0,68.7,66.0,94,79,53,29.97,29.86,13,4,17,0.00
2013-6-19,84.3,77.0,69.4,75.0,72.1,68.0,97,85,70,29.96,29.82,13,4,17,0.00
2013-6-20,90.0,82.2,73.9,77.0,72.5,69.0,93,74,55,29.95,29.85,15,6,20,0.00
2013-6-21,90.3,82.6,75.5,76.0,71.4,69.0,82,70,54,29.96,29.86,14,6,22,0.00
2013-6-22,89.9,82.5,74.0,72.0,70.0,68.0,85,67,51,29.94,29.79,18,7,26,0.00
2013-6-23,90.3,82.8,74.8,72.0,70.3,68.0,85,67,51,29.89,29.79,18,7,28,0.00
2013-6-24,89.7,82.1,75.6,73.0,70.4,68.0,80,68,55,29.94,29.80,21,6,23,0.00
2013-6-25,91.8,84.1,77.1,75.0,71.1,67.0,80,65,54,29.87,29.72,25,7,29,0.00
2013-6-26,92.8,84.8,77.1,76.0,71.8,66.0,78,65,57,29.85,29.73,14,5,19,0.00
2013-6-27,98.0,86.3,75.8,77.0,73.1,68.0,82,66,43,29.93,29.77,17,3,25,0.00
2013-6-28,95.2,86.6,78.2,74.0,68.4,65.0,72,56,38,29.92,29.79,14,4,19,0.00
2013-6-29,91.8,83.0,74.5,69.0,64.8,60.0,80,56,36,29.88,29.77,14,4,23,0.00
2013-6-30,85.5,78.2,69.7,68.0,59.6,56.0,79,54,37,29.93,29.79,15,5,23,0.00
2013-7-1,84.0,73.2,62.4,62.0,57.1,51.0,81,59,35,30.02,29.92,16,4,21,0.00
2013-7-2,85.3,73.8,58.9,60.0,54.9,51.0,83,54,32,30.07,29.96,14,2,18,0.00
2013-7-3,86.5,76.4,61.4,62.0,56.7,54.0,85,53,35,30.03,29.90,9,2,12,0.00
2013-7-4,89.5,78.6,65.9,67.0,61.0,57.0,78,57,35,29.96,29.84,14,4,16,0.00
2013-7-5,91.8,81.4,71.4,69.0,64.7,61.0,81,58,36,29.93,29.80,14,5,19,0.02
2013-7-6,93.0,81.2,71.6,70.0,64.9,62.0,72,59,39,29.88,29.79,15,5,21,0.00
2013-7-7,91.9,83.0,73.4,72.0,67.7,65.0,76,61,44,29.94,29.87,14,5,22,0.00
2013-7-8,93.5,82.6,74.3,75.0,71.2,67.0,88,70,47,30.01,29.90,11,4,18,0.00
2013-7-9,96.8,86.2,73.7,73.0,68.9,63.0,78,58,41,30.01,29.88,14,4,21,0.00
2013-7-10,99.0,88.7,77.6,73.0,68.9,65.0,69,53,37,29.96,29.82,16,3,18,0.00
2013-7-11,100.6,88.6,77.4,71.0,68.6,66.0,75,54,32,29.89,29.77,17,3,26,0.00
2013-7-12,95.1,84.9,74.6,74.0,71.7,70.0,89,66,46,29.90,29.82,13,5,19,0.00
2013-7-13,95.5,85.5,75.8,72.0,69.5,67.0,84,61,42,29.94,29.81,14,3,17,0.00
2013-7-14,82.1,71.8,63.9,69.0,66.1,60.0,95,84,50,29.98,29.84,14,2,25,0.65
2013-7-15,72.4,67.5,62.9,69.0,65.5,62.0,96,93,86,30.07,29.95,12,4,15,1.37
2013-7-16,85.1,75.9,69.9,75.0,71.2,69.0,96,86,64,30.16,30.06,10,3,14,0.17
2013-7-17,87.0,79.3,72.4,75.0,72.3,70.0,96,80,58,30.20,30.10,11,2,14,0.01
2013-7-18,91.0,81.6,71.9,75.0,72.1,70.0,96,74,51,30.14,29.95,9,1,12,0.00
2013-7-19,93.2,81.5,73.0,73.0,71.7,70.0,93,74,48,29.99,29.85,12,2,17,0.00
2013-7-20,92.0,81.0,72.2,74.0,71.6,70.0,94,75,51,29.91,29.78,16,2,17,0.00
2013-7-21,94.6,83.5,73.2,74.0,72.3,70.0,92,71,48,29.84,29.75,11,3,17,0.00
2013-7-22,94.4,85.0,75.6,76.0,74.0,71.0,90,71,52,29.86,29.76,19,5,21,0.00
2013-7-23,95.3,86.5,79.2,78.0,74.4,72.0,79,68,52,29.87,29.71,12,4,19,0.00
2013-7-24,89.9,79.3,66.6,75.0,70.3,64.0,94,75,55,30.02,29.75,27,5,46,0.60
2013-7-25,85.4,79.0,71.8,74.0,71.9,70.0,95,79,65,30.02,29.91,10,3,13,0.00
2013-7-26,86.7,78.5,72.2,77.0,73.1,70.0,95,84,69,29.95,29.84,18,6,22,0.96
2013-7-27,84.3,76.1,69.0,70.0,69.1,67.0,94,80,60,30.00,29.88,10,4,16,0.00
2013-7-28,87.4,78.4,70.0,72.0,69.2,67.0,93,75,54,29.94,29.82,15,4,18,0.00
2013-7-29,89.0,80.8,75.7,78.0,73.5,70.0,92,79,64,29.93,29.82,15,7,23,0.05
2013-7-30,92.8,83.7,75.1,79.0,73.5,66.0,87,72,57,29.96,29.85,13,4,20,0.00
2013-7-31,93.5,84.4,74.9,79.0,75.7,73.0,94,76,58,29.98,29.88,10,2,13,0.00
2013-8-1,92.0,83.6,76.1,77.0,74.2,72.0,89,74,53,29.98,29.85,10,4,14,0.00
2013-8-2,100.4,88.1,76.6,75.0,72.2,69.0,85,62,38,29.88,29.76,13,5,19,0.00
2013-8-3,96.9,87.2,77.5,74.0,70.3,67.0,76,58,42,29.94,29.81,14,6,17,0.00
2013-8-4,97.0,86.0,74.9,75.0,70.7,68.0,84,62,41,29.98,29.85,13,4,18,0.00
2013-8-5,100.1,87.9,76.7,74.0,70.7,67.0,82,59,37,29.90,29.73,17,5,19,0.00
2013-8-6,101.9,89.9,78.0,73.0,68.3,65.0,72,51,31,29.80,29.68,14,5,21,0.00
2013-8-7,103.0,90.7,80.8,74.0,70.0,66.0,73,52,32,29.77,29.65,12,3,17,0.00
2013-8-8,97.4,86.9,75.6,74.0,70.6,67.0,86,60,39,29.82,29.70,13,3,21,0.06
2013-8-9,96.7,83.2,75.7,75.0,72.7,69.0,89,72,47,29.94,29.76,18,5,23,0.00
2013-8-10,89.7,80.4,73.8,74.0,70.5,67.0,92,73,48,30.05,29.94,12,6,20,0.00
2013-8-11,97.3,82.5,68.7,73.0,69.6,66.0,94,68,39,30.02,29.89,6,0,12,0.00
2013-8-12,97.9,84.4,75.1,73.0,71.3,69.0,87,67,40,29.97,29.83,11,1,25,0.27
2013-8-13,87.9,79.7,75.1,75.0,73.1,70.0,95,81,57,29.98,29.84,13,0,15,0.10
2013-8-14,86.4,77.5,69.8,72.0,69.6,67.0,94,78,55,30.02,29.91,13,4,17,0.00
2013-8-15,84.6,76.1,68.8,69.0,65.8,62.0,84,71,56,30.03,29.88,16,4,19,0.00
2013-8-16,83.9,73.8,64.9,69.0,65.5,62.0,94,76,54,30.04,29.90,21,4,42,0.11
2013-8-17,83.8,74.2,63.5,66.0,63.3,61.0,92,71,51,30.07,29.96,14,3,17,0.00
2013-8-18,86.2,76.7,66.7,67.0,63.8,61.0,83,66,46,30.07,29.95,13,3,15,0.00
2013-8-19,91.0,79.9,68.6,69.0,64.7,62.0,86,62,39,30.02,29.89,16,6,23,0.00
2013-8-20,93.5,81.5,68.3,67.0,62.8,60.0,82,56,33,29.98,29.88,13,3,19,0.00
2013-8-21,95.1,82.3,69.7,68.0,63.1,59.0,82,55,30,30.02,29.91,13,2,18,0.00
2013-8-22,96.9,85.8,72.8,71.0,67.4,64.0,83,56,37,30.02,29.86,11,2,17,0.00
2013-8-23,96.1,85.2,75.6,72.0,69.6,66.0,82,61,37,29.96,29.86,15,4,22,0.00
2013-8-24,96.6,85.4,75.2,73.0,69.2,65.0,83,61,37,30.01,29.91,13,5,22,0.00
2013-8-25,95.3,85.3,74.8,72.0,68.7,67.0,84,59,41,30.09,29.99,15,6,22,0.00
2013-8-26,93.6,83.5,73.5,71.0,67.3,64.0,80,60,38,30.11,29.99,17,4,38,0.00
2013-8-27,88.9,79.8,70.9,73.0,68.2,63.0,87,69,51,30.05,29.94,12,3,17,0.00
2013-8-28,95.6,83.2,70.6,71.0,67.9,66.0,90,63,39,30.03,29.92,13,3,19,0.00
2013-8-29,99.4,87.2,72.4,68.0,65.5,64.0,79,51,32,30.01,29.87,13,3,16,0.00
2013-8-30,101.1,88.3,74.1,68.0,65.1,63.0,74,49,29,29.94,29.78,11,2,13,0.00
2013-8-31,103.9,89.9,76.1,67.0,64.1,61.0,69,45,25,29.83,29.70,8,2,17,0.00
2013-9-1,103.2,88.1,75.3,74.0,67.1,61.0,72,52,25,29.81,29.70,11,2,23,0.04
2013-9-2,95.2,84.8,76.1,75.0,71.4,63.0,90,66,42,29.93,29.80,13,3,18,0.00
2013-9-3,93.8,80.4,67.8,65.0,61.8,55.0,81,56,28,29.97,29.86,13,3,17,0.00
2013-9-4,95.6,83.9,72.7,71.0,65.7,62.0,76,56,37,30.02,29.92,13,5,23,0.00
2013-9-5,96.0,84.4,72.8,70.0,64.5,62.0,72,53,33,30.06,29.94,13,4,16,0.00
2013-9-6,97.7,84.8,72.6,68.0,63.8,61.0,72,51,31,30.03,29.88,13,2,16,0.00
2013-9-7,98.1,85.7,73.5,68.0,65.7,64.0,74,53,33,29.95,29.84,11,2,19,0.00
2013-9-8,96.4,84.1,71.1,70.0,64.9,60.0,86,56,30,29.91,29.80,14,2,18,0.00
2013-9-9,93.8,83.3,72.1,69.0,64.3,58.0,79,55,31,29.93,29.84,18,3,20,0.00
2013-9-10,92.3,82.2,72.2,70.0,64.1,57.0,81,56,33,30.04,29.89,13,3,20,0.00
2013-9-11,95.2,81.6,68.8,70.0,63.9,58.0,76,56,37,30.08,29.94,13,2,19,0.00
2013-9-12,93.4,82.0,71.1,70.0,67.9,66.0,86,64,43,30.02,29.89,14,2,20,0.00
2013-9-13,92.6,81.6,73.2,71.0,69.2,67.0,86,68,43,29.94,29.80,19,5,21,0.00
2013-9-14,89.1,79.4,70.6,69.0,63.0,57.0,83,59,43,29.94,29.83,18,7,21,0.00
2013-9-15,93.8,82.2,71.2,70.0,63.9,57.0,63,54,44,29.97,29.88,12,4,17,0.00
2013-9-16,91.7,83.3,72.1,68.0,65.4,63.0,75,56,41,30.05,29.91,14,4,19,0.00
2013-9-17,93.8,82.6,73.1,70.0,65.9,62.0,74,58,38,30.01,29.88,12,3,21,0.00
2013-9-18,94.0,84.4,76.8,70.0,66.9,63.0,75,57,37,29.94,29.80,20,4,25,0.00
2013-9-19,90.9,81.9,72.9,72.0,68.2,65.0,90,64,44,29.91,29.81,13,4,21,0.00
2013-9-20,73.5,70.2,63.5,70.0,67.0,57.0,96,89,79,29.93,29.84,14,5,19,0.25
2013-9-21,82.2,68.8,55.4,57.0,50.2,40.0,91,58,23,29.99,29.85,16,4,19,0.00
2013-9-22,82.9,68.8,53.0,54.0,50.6,47.0,88,56,29,29.91,29.76,11,3,19,0.00
2013-9-23,83.5,70.8,57.3,56.0,53.2,51.0,82,56,34,29.82,29.69,14,4,19,0.00
2013-9-24,89.6,74.8,58.5,60.0,49.4,41.0,85,47,19,29.91,29.80,17,4,24,0.00
2013-9-25,92.2,74.4,55.2,56.0,49.7,44.0,77,46,23,29.86,29.71,9,1,14,0.00
2013-9-26,93.5,80.2,66.7,62.0,56.5,51.0,62,45,33,29.81,29.72,15,4,23,0.00
2013-9-27,88.3,78.7,65.6,71.0,65.4,58.0,81,64,51,29.86,29.75,20,5,26,0.00
2013-9-28,79.4,71.2,63.1,74.0,65.6,57.0,94,82,70,30.04,29.77,15,5,20,0.53
2013-9-29,79.1,66.1,52.7,57.0,51.3,46.0,94,63,32,30.05,29.89,12,1,16,0.00
2013-9-30,85.1,69.9,53.9,59.0,52.4,49.0,86,57,32,29.90,29.76,0,0,0,0.00
2013-10-1,87.6,74.6,62.5,68.0,62.9,56.0,95,69,42,29.88,29.79,0,0,0,0.00
2013-10-2,86.3,77.6,70.8,72.0,69.8,67.0,95,78,56,29.91,29.78,0,0,0,0.00
2013-10-3,89.2,80.3,72.9,73.0,70.1,68.0,89,72,53,29.84,29.71,0,0,0,0.00
2013-10-4,86.6,79.2,73.0,71.0,69.2,67.0,88,72,54,29.83,29.73,0,0,0,0.00
2013-10-5,78.0,60.6,52.2,69.0,49.5,40.0,83,67,45,30.07,29.77,0,0,0,0.06
2013-10-6,74.2,58.7,45.9,45.0,36.0,24.0,81,50,16,30.12,30.01,0,0,0,0.00
2013-10-7,79.1,63.2,46.5,46.0,37.7,30.0,77,45,18,30.15,30.04,0,0,0,0.00
2013-10-8,79.5,65.0,51.0,53.0,46.0,42.0,78,53,27,30.09,29.95,0,0,0,0.00
2013-10-9,81.0,68.1,56.4,55.0,52.8,51.0,83,61,37,30.03,29.92,0,0,0,0.00
2013-10-10,81.7,69.6,56.9,64.0,57.9,54.0,91,68,45,30.00,29.81,0,0,0,0.00
2013-10-11,84.9,74.5,64.6,70.0,65.9,59.0,91,75,57,29.84,29.73,0,0,0,0.00
2013-10-12,85.4,75.7,66.9,72.0,67.9,64.0,96,79,52,30.04,29.80,0,0,0,0.12
2013-10-13,75.0,69.3,63.9,69.0,66.0,62.0,95,89,80,30.17,30.04,0,0,0,0.00
2013-10-14,71.7,69.2,66.6,71.0,67.3,65.0,97,93,85,30.10,29.85,0,0,0,2.09
2013-10-15,71.9,60.6,53.2,70.0,58.1,49.0,96,91,81,30.07,29.84,0,0,0,0.52
2013-10-16,63.2,55.1,48.6,52.0,45.6,43.0,94,72,49,30.13,30.02,0,0,0,0.02
2013-10-17,71.0,55.7,42.6,51.0,46.1,41.0,94,73,47,30.11,29.95,0,0,0,0.00
2013-10-18,68.0,56.4,43.9,55.0,49.4,41.0,91,78,48,30.15,29.88,0,0,0,0.00
2013-10-19,65.4,50.0,36.3,42.0,39.2,35.0,94,70,38,30.20,30.05,0,0,0,0.00
2013-10-20,69.7,56.8,42.0,46.0,43.1,38.0,87,62,40,30.05,29.82,0,0,0,0.00
2013-10-21,60.8,54.3,44.8,53.0,47.8,41.0,91,79,67,30.12,29.86,0,0,0,0.00
2013-10-22,75.5,56.2,39.4,48.0,43.6,37.0,91,67,36,30.15,29.99,0,0,0,0.00
2013-10-23,79.4,63.8,47.7,53.0,48.0,43.0,86,59,32,30.11,29.97,0,0,0,0.00
2013-10-24,67.1,58.7,48.9,47.0,43.7,37.0,88,59,41,30.30,29.99,0,0,0,0.00
2013-10-25,63.5,53.2,45.0,45.0,40.4,37.0,74,62,48,30.41,30.23,0,0,0,0.00
2013-10-26,61.6,56.2,50.9,59.0,52.5,45.0,96,87,72,30.22,30.03,0,0,2,0.65
2013-10-27,64.3,58.7,54.5,60.0,56.9,53.0,97,94,84,30.11,29.97,0,0,0,0.01
2013-10-28,69.6,61.0,52.9,65.0,59.4,52.0,98,94,84,30.07,29.96,0,0,0,0.00
2013-10-29,76.1,71.2,67.2,70.0,67.5,65.0,94,88,81,30.01,29.90,0,0,3,0.00
2013-10-30,71.5,69.0,65.1,69.0,67.1,64.0,96,93,88,29.93,29.72,0,0,0,0.11
2013-10-31,68.0,64.0,54.6,67.0,53.1,43.0,98,70,42,29.82,29.60,0,0,0,0.02
2013-11-1,74.0,59.5,46.3,51.0,44.6,41.0,89,61,33,30.09,29.79,0,0,0,0.00
2013-11-2,64.8,54.4,45.5,42.0,36.5,32.0,76,54,30,30.30,30.09,0,0,0,0.00
2013-11-3,64.0,54.2,42.0,45.0,39.2,34.0,78,58,42,30.19,29.94,4,0,11,0.00
2013-11-4,62.0,58.0,53.9,58.0,52.8,45.0,95,83,67,30.04,29.94,0,0,0,0.22
2013-11-5,67.2,62.8,59.0,66.0,61.7,58.0,97,96,94,30.03,29.89,0,0,0,0.95
2013-11-6,67.7,49.2,39.2,67.0,42.2,36.0,96,78,51,30.38,29.91,0,0,2,0.61
2013-11-7,62.6,48.5,35.4,41.0,37.6,33.0,93,69,40,30.50,30.37,0,0,0,0.00
2013-11-8,64.1,54.3,43.8,43.0,39.3,34.0,81,59,33,30.36,30.09,0,0,0,0.00
2013-11-9,68.0,59.2,52.1,53.0,48.5,43.0,76,68,54,30.21,30.07,0,0,0,0.00
2013-11-10,64.0,57.8,53.2,53.0,49.9,47.0,86,75,65,30.33,30.21,0,0,0,0.00
2013-11-11,71.6,60.8,50.3,58.0,53.7,47.0,91,78,60,30.31,30.14,0,0,0,0.00
2013-11-12,55.3,40.5,29.2,51.0,26.0,16.0,89,59,32,30.71,30.32,0,0,0,0.00
2013-11-13,51.5,36.7,22.8,28.0,23.9,18.0,85,62,36,30.72,30.36,0,0,9,0.00
2013-11-14,52.7,44.7,33.5,40.0,30.7,26.0,75,59,43,30.36,29.98,0,0,12,0.00
2013-11-15,67.4,57.2,46.4,58.0,48.5,41.0,92,74,52,29.98,29.77,0,0,3,0.00
2013-11-16,75.8,67.6,61.4,65.0,60.8,58.0,90,79,59,29.77,29.57,0,0,0,0.03
2013-11-17,78.6,69.5,59.9,66.0,50.7,28.0,90,56,27,30.02,29.60,0,0,9,0.00
2013-11-18,68.3,58.7,49.2,37.0,30.9,23.0,49,36,24,30.20,30.02,2,0,13,0.00
2013-11-19,63.3,57.4,52.6,40.0,34.8,29.0,57,44,29,30.16,29.97,9,0,18,0.00
2013-11-20,62.4,56.1,48.5,55.0,41.9,33.0,79,60,48,29.98,29.84,3,0,35,0.00
2013-11-21,66.9,55.8,34.8,66.0,53.3,33.0,95,91,79,30.29,29.90,4,0,67,0.10
2013-11-22,34.9,32.3,31.1,33.0,29.4,28.0,93,89,84,30.54,30.30,17,2,22,0.01
2013-11-23,39.3,34.9,32.0,32.0,28.7,24.0,93,79,60,30.62,30.52,0,0,2,0.05
2013-11-24,32.9,30.3,29.2,26.0,21.8,17.0,85,71,59,30.65,30.37,0,0,15,0.00
2013-11-25,34.8,32.6,29.9,33.0,30.8,26.0,94,92,86,30.38,30.20,5,0,19,0.06
2013-11-26,48.7,40.1,34.2,34.0,30.6,23.0,94,71,45,30.41,30.20,8,0,13,0.01
2013-11-27,45.5,34.3,24.6,22.0,15.4,13.0,67,48,29,30.49,30.35,0,0,0,0.00
2013-11-28,54.2,40.3,28.0,29.0,24.5,16.0,74,55,36,30.45,30.34,3,0,19,0.00
2013-11-29,58.5,43.5,30.6,36.0,31.5,26.0,86,65,36,30.49,30.32,14,0,20,0.00
2013-11-30,65.0,52.9,41.9,51.0,46.0,36.0,91,78,59,30.32,30.10,10,0,20,0.00
2013-12-1,62.3,54.4,46.5,54.0,50.5,45.0,95,87,73,30.11,29.89,3,0,12,0.00
2013-12-2,66.3,48.3,37.5,57.0,44.8,36.0,97,89,54,29.88,29.66,6,0,7,0.00
2013-12-3,68.7,53.6,45.6,54.0,45.5,40.0,97,78,35,29.66,29.48,33,1,36,0.00
2013-12-4,57.9,48.6,35.2,44.0,38.0,26.0,87,67,53,29.98,29.51,23,3,47,0.00
2013-12-5,35.2,27.9,22.8,26.0,19.7,16.0,88,72,59,30.25,29.99,20,1,28,0.00
2013-12-6,26.1,22.6,18.9,20.0,16.8,8.0,89,78,63,30.59,30.22,18,1,24,0.00
2013-12-7,23.6,19.0,13.3,17.0,10.5,5.0,76,69,63,30.64,30.30,0,0,0,0.00
2013-12-8,37.5,27.9,22.9,27.0,23.3,17.0,92,83,66,30.30,30.03,0,0,7,0.04
2013-12-9,31.1,26.4,21.5,24.0,20.9,16.0,90,80,66,30.46,30.20,0,0,0,0.00
2013-12-10,39.4,25.5,13.6,20.0,16.0,10.0,86,69,43,30.54,30.33,0,0,0,0.00
2013-12-11,43.6,32.0,22.9,28.0,23.5,19.0,88,72,52,30.63,30.32,0,0,2,0.01
2013-12-12,44.6,33.5,21.7,31.0,26.1,18.0,86,75,59,30.64,30.29,0,0,6,0.00
2013-12-13,46.1,41.0,37.4,42.0,37.5,32.0,96,87,74,30.28,29.77,0,0,0,0.30
2013-12-14,43.0,37.5,31.1,42.0,32.5,26.0,97,82,64,30.33,29.81,0,0,0,0.00
2013-12-15,58.8,42.2,26.7,34.0,29.3,23.0,87,64,35,30.34,30.19,0,0,2,0.00
2013-12-16,67.3,49.8,35.9,38.0,33.7,28.0,78,56,31,30.21,30.10,0,0,1,0.00
2013-12-17,72.3,51.5,31.2,40.0,33.6,27.0,87,56,23,30.28,30.16,0,0,0,0.00
2013-12-18,69.5,54.9,39.8,48.0,38.8,29.0,75,57,32,30.25,29.92,0,0,0,0.00
2013-12-19,69.1,60.9,54.3,58.0,53.8,48.0,87,78,63,29.91,29.66,0,0,0,0.00
2013-12-20,61.6,41.8,31.4,59.0,39.2,29.0,94,90,84,29.90,29.68,0,0,0,0.05
2013-12-21,37.9,35.3,32.2,37.0,34.1,30.0,96,95,92,29.83,29.58,0,0,0,0.97
2013-12-22,36.0,31.4,24.4,34.0,26.4,21.0,92,82,70,30.42,29.84,0,0,0,0.00
2013-12-23,41.0,27.1,19.2,31.0,23.5,17.0,94,87,58,30.61,30.41,0,0,0,0.00
2013-12-24,48.5,34.7,22.9,34.0,28.4,21.0,93,79,57,30.60,30.23,0,0,0,0.00
2013-12-25,40.9,35.9,28.0,35.0,31.7,26.0,92,85,78,30.44,30.26,0,0,0,0.00
2013-12-26,53.7,38.8,25.6,39.0,29.1,24.0,95,72,39,30.46,30.34,0,0,0,0.00
2013-12-27,58.3,42.9,27.8,33.0,28.9,22.0,86,61,32,30.44,30.32,0,0,0,0.00
2013-12-28,60.1,48.0,33.4,45.0,37.9,29.0,88,69,55,30.31,29.93,0,0,0,0.00
2013-12-29,46.1,34.3,27.9,42.0,28.3,17.0,93,79,64,30.32,29.92,0,0,0,0.00
2013-12-30,40.9,29.4,18.8,19.0,16.1,13.0,79,59,41,30.43,30.29,0,0,0,0.00
2013-12-31,54.9,38.1,23.6,29.0,24.4,17.0,78,60,36,30.44,30.17,0,0,0,0.00
2014-1-1,66.4,43.5,26.2,41.0,31.3,18.0,84,65,37,30.28,29.84,0,0,0,0.00
2014-1-2,39.8,29.1,19.8,20.0,17.2,13.0,78,63,44,30.52,30.28,0,0,0,0.00